Location: Newark
(48.1500°N, 13.1167°E)
Time: 06:50:53
(UTC+00:00)

KAITUO 1B - Pass Details

Date: 03 December 2021
Orbit: 486 x 507 km, 97.4° (Epoch: 18 January)

Event Time Altitude Azimuth Distance (km) Brightness Sun altitude
Rises 05:06:41 0° 21° (NNE) 2,633 ? -14.8°
Reaches altitude 10° 05:08:58 10° 33° (NNE) 1,739 ? -14.4°
Maximum altitude 05:12:19 31° 96° (E) 924 ? -13.9°
Drops below altitude 10° 05:15:38 10° 159° (SSE) 1,716 ? -13.4°
Sets 05:17:52 0° 171° (S) 2,590 ? -13.0°
